Grand Marais, MN

7:38 AM CST on November 17, 2019 (GMT -0600)
Grand Marais

Weather History for KGNA - September, 2019

Change the Weather History Date:

Monday, September 9, 2019

  Actual Average (WUND) Record (WUND)
Temperature  
Mean Temperature 52 °F -  
Max Temperature 57 °F - - (-1)
Min Temperature 48 °F - - (-1)
Degree Days  
Heating Degree Days 14    
Growing Degree Days 2 (Base 50)    
Moisture  
Dew Point 48 °F    
Average Humidity 87    
Maximum Humidity 100    
Minimum Humidity 69    
Precipitation  
Precipitation 0.75 in - - ()
Sea Level Pressure  
Sea Level Pressure 30.16 in    
Wind  
Wind Speed 7 mph (NE)    
Max Wind Speed 20 mph    
Max Gust Speed 26 mph    
Averages and records for this station are not official NWS values.
T = Trace of Precipitation, MM = Missing Value Source: NWS Daily Summary

Daily Weather History Graph

Daily Weather History Graph

Search for Another Location

Airport or City:

Astronomy

Sep. 09, 2019 Rise Set
Actual Time 6:30 AM CDT 7:26 PM CDT
Civil Twilight 5:58 AM CDT 7:57 PM CDT
Nautical Twilight 5:21 AM CDT 8:35 PM CDT
Astronomical Twilight 4:41 AM CDT 9:14 PM CDT
Moon 5:41 PM CDT (9/9) 1:40 AM CDT (9/9)
Length of Visible Light 13h 58m
Length of Day
12h 56m
Waxing Gibbous, 83% of the Moon is Illuminated
Sep 9
Waxing Gibbous
Sep 13
Full
Sep 21
Last Quarter
Sep 28
New
Oct 5
First Quarter

Hourly Weather History & Observations

Time (CDT) Temp. Dew Point Humidity Pressure Visibility Wind Dir Wind Speed Gust Speed Precip Events Conditions
12:56 AM 51.1 °F 46.9 °F 86% 30.24 in - Variable 4.6 mph - N/A   Unknown
1:56 AM 51.1 °F 48.0 °F 89% 30.25 in - North 3.5 mph - N/A   Unknown
2:56 AM 48.9 °F 46.0 °F 90% 30.24 in - Calm Calm - N/A   Unknown
3:56 AM 48.9 °F 46.0 °F 90% 30.24 in - Calm Calm - N/A   Unknown
4:56 AM 51.1 °F 48.0 °F 89% 30.24 in - NE 3.5 mph - N/A   Unknown
5:56 AM 52.0 °F 48.9 °F 89% 30.24 in - NE 4.6 mph - N/A   Unknown
6:56 AM 52.0 °F 48.9 °F 89% 30.25 in - NE 8.1 mph - N/A   Unknown
7:56 AM 53.1 °F 48.9 °F 86% 30.25 in - ENE 5.8 mph - N/A   Unknown
8:56 AM 51.1 °F 46.9 °F 86% 30.25 in - ENE 6.9 mph - N/A   Unknown
9:56 AM 51.1 °F 48.0 °F 89% 30.25 in - ENE 9.2 mph - N/A   Unknown
10:56 AM 51.1 °F 46.9 °F 86% 30.25 in - ENE 8.1 mph - N/A   Unknown
11:56 AM 51.1 °F 48.0 °F 89% 30.24 in - ENE 6.9 mph - N/A   Unknown
12:56 PM 51.1 °F 48.0 °F 89% 30.23 in - ENE 11.5 mph - N/A   Unknown
1:56 PM 55.0 °F 48.9 °F 80% 30.22 in - ENE 9.2 mph - N/A   Unknown
2:56 PM 55.0 °F 48.0 °F 77% 30.18 in - ENE 12.7 mph - N/A   Unknown
3:56 PM 54.0 °F 46.0 °F 75% 30.15 in - ENE 12.7 mph - N/A   Unknown
4:56 PM 55.0 °F 46.0 °F 72% 30.13 in - ENE 15.0 mph - N/A   Unknown
5:56 PM 55.9 °F 46.0 °F 69% 30.09 in - ENE 16.1 mph 24.2 mph N/A   Unknown
6:56 PM 54.0 °F 48.9 °F 83% 30.09 in - NE 13.8 mph 19.6 mph 0.04 in   Unknown
7:56 PM 54.0 °F 51.1 °F 90% 30.04 in - NE 16.1 mph 21.9 mph 0.03 in   Unknown
8:56 PM 53.1 °F 52.0 °F 96% 30.02 in - ENE 17.3 mph 25.3 mph 0.06 in   Unknown
9:56 PM 53.1 °F 52.0 °F 96% 29.98 in - ENE 19.6 mph 26.5 mph 0.15 in   Unknown
10:56 PM 52.0 °F 51.1 °F 97% 29.96 in - ENE 17.3 mph - 0.23 in   Unknown
11:56 PM 50.0 °F 50.0 °F 100% 29.93 in - ENE 17.3 mph 26.5 mph 0.24 in   Unknown